Station Historical Data
Daily Summary for February 12, 2017 Units:  English    Metric   Both
« Previous Day
Next Day »
Daily Weekly Monthly Yearly Custom
  High: Low: Average:
Temperature: 34.7 °F 30.1 °F 32.8 °F
Dew Point: 33.1 °F 23.0 °F 30 °F
Humidity: 94% 74% 90%
Wind Speed: 18.0mph 0.0mph 4.9mph
Wind Gust: 29.0mph - -
Wind- - South
Pressure: 30.04 in 29.70 in -
Precipitation: 0.00 in    
Historical Graphs
 
 
Tabular Data for February 12, 2017
Time Temperature Dew Point Pressure Wind Wind Speed Wind Gust Humidity Rainfall Rate (Hourly)
00:04 34.7 °F 29.2 °F 30.04 in ENE 2.0 mph 8.0 mph 80% 0.00 in
00:09 34.7 °F 29.2 °F 30.04 in NE 4.0 mph 8.0 mph 80% 0.00 in
00:14 34.6 °F 29.1 °F 30.04 in East 5.0 mph 9.0 mph 80% 0.00 in
00:19 34.6 °F 29.1 °F 30.04 in ENE 3.0 mph 8.0 mph 80% 0.00 in
00:24 34.7 °F 29.2 °F 30.04 in ENE 1.0 mph 6.0 mph 80% 0.00 in
00:29 34.6 °F 29.1 °F 30.04 in NE 5.0 mph 8.0 mph 80% 0.00 in
00:34 34.7 °F 29.2 °F 30.03 in NNE 3.0 mph 8.0 mph 80% 0.00 in
00:39 34.6 °F 29.1 °F 30.03 in ENE 5.0 mph 10.0 mph 80% 0.00 in
00:44 34.6 °F 29.1 °F 30.03 in ENE 5.0 mph 10.0 mph 80% 0.00 in
00:49 34.6 °F 29.4 °F 30.03 in ENE 5.0 mph 10.0 mph 81% 0.00 in
00:54 34.5 °F 29.3 °F 30.02 in ENE 4.0 mph 9.0 mph 81% 0.00 in
00:59 34.4 °F 29.2 °F 30.02 in East 5.0 mph 7.0 mph 81% 0.00 in
01:05 34.4 °F 29.2 °F 30.02 in East 6.0 mph 11.0 mph 81% 0.00 in
01:10 34.3 °F 29.4 °F 30.01 in East 6.0 mph 7.0 mph 82% 0.00 in
01:15 34.3 °F 29.4 °F 30.02 in ENE 4.0 mph 6.0 mph 82% 0.00 in
01:20 34.3 °F 29.4 °F 30.02 in ENE 4.0 mph 8.0 mph 82% 0.00 in
01:25 34.3 °F 29.7 °F 30.01 in ENE 4.0 mph 8.0 mph 83% 0.00 in
01:30 34.2 °F 29.6 °F 30.01 in ENE 3.0 mph 8.0 mph 83% 0.00 in
01:40 34.2 °F 29.6 °F 30.01 in ENE 4.0 mph 9.0 mph 83% 0.00 in
01:45 34.1 °F 29.5 °F 30.01 in ENE 4.0 mph 8.0 mph 83% 0.00 in
01:50 34.0 °F 29.7 °F 30.01 in ENE 2.0 mph 7.0 mph 84% 0.00 in
01:55 34.0 °F 29.7 °F 30.01 in NE 3.0 mph 9.0 mph 84% 0.00 in
02:00 34.0 °F 29.7 °F 30.01 in ENE 4.0 mph 9.0 mph 84% 0.00 in
02:05 34.0 °F 29.7 °F 30.00 in ENE 3.0 mph 9.0 mph 84% 0.00 in
02:10 33.9 °F 29.9 °F 30.00 in ENE 4.0 mph 9.0 mph 85% 0.00 in
02:15 33.8 °F 29.8 °F 30.00 in NE 4.0 mph 9.0 mph 85% 0.00 in
02:20 33.8 °F 29.8 °F 30.00 in ENE 5.0 mph 8.0 mph 85% 0.00 in
02:25 33.7 °F 29.7 °F 29.99 in ENE 4.0 mph 8.0 mph 85% 0.00 in
02:30 33.6 °F 29.9 °F 29.99 in ENE 8.0 mph 9.0 mph 86% 0.00 in
02:35 33.5 °F 29.8 °F 29.99 in East 6.0 mph 11.0 mph 86% 0.00 in
02:40 33.5 °F 29.8 °F 29.99 in ENE 5.0 mph 11.0 mph 86% 0.00 in
02:45 33.4 °F 29.9 °F 29.98 in ENE 4.0 mph 8.0 mph 87% 0.00 in
02:50 33.4 °F 29.9 °F 29.98 in ENE 4.0 mph 9.0 mph 87% 0.00 in
02:55 33.3 °F 29.8 °F 29.97 in NE 2.0 mph 9.0 mph 87% 0.00 in
03:00 33.3 °F 29.8 °F 29.98 in NE 3.0 mph 7.0 mph 87% 0.00 in
03:05 33.3 °F 29.8 °F 29.98 in NE 3.0 mph 8.0 mph 87% 0.00 in
03:10 33.2 °F 30.0 °F 29.97 in NE 7.0 mph 10.0 mph 88% 0.00 in
03:15 33.1 °F 29.9 °F 29.97 in NE 5.0 mph 10.0 mph 88% 0.00 in
03:20 33.0 °F 29.8 °F 29.97 in NE 5.0 mph 11.0 mph 88% 0.00 in
03:25 33.0 °F 29.8 °F 29.97 in NE 6.0 mph 11.0 mph 88% 0.00 in
03:30 32.9 °F 29.7 °F 29.97 in NE 7.0 mph 12.0 mph 88% 0.00 in
03:35 32.9 °F 30.0 °F 29.97 in NE 5.0 mph 12.0 mph 89% 0.00 in
03:40 32.8 °F 29.9 °F 29.97 in ENE 8.0 mph 10.0 mph 89% 0.00 in
03:45 32.8 °F 29.9 °F 29.97 in NE 5.0 mph 12.0 mph 89% 0.00 in
03:50 32.7 °F 29.8 °F 29.96 in NE 6.0 mph 12.0 mph 89% 0.01 in
03:55 32.6 °F 29.7 °F 29.96 in NE 6.0 mph 11.0 mph 89% 0.01 in
04:00 32.5 °F 29.6 °F 29.95 in NE 2.0 mph 13.0 mph 89% 0.01 in
04:05 32.4 °F 29.8 °F 29.95 in NE 5.0 mph 13.0 mph 90% 0.01 in
04:10 32.2 °F 29.6 °F 29.95 in NE 6.0 mph 10.0 mph 90% 0.01 in
04:15 32.2 °F 29.6 °F 29.94 in East 7.0 mph 11.0 mph 90% 0.02 in
04:20 32.2 °F 29.6 °F 29.94 in NE 6.0 mph 12.0 mph 90% 0.02 in
04:25 32.1 °F 29.5 °F 29.94 in NE 5.0 mph 12.0 mph 90% 0.02 in
04:30 32.1 °F 29.5 °F 29.93 in NE 5.0 mph 10.0 mph 90% 0.02 in
04:35 32.1 °F 29.5 °F 29.93 in NE 6.0 mph 11.0 mph 90% 0.02 in
04:40 32.1 °F 29.8 °F 29.92 in NE 5.0 mph 13.0 mph 91% 0.02 in
04:45 32.1 °F 29.8 °F 29.92 in NE 6.0 mph 13.0 mph 91% 0.02 in
04:50 32.1 °F 29.8 °F 29.92 in NE 6.0 mph 12.0 mph 91% 0.01 in
04:55 32.0 °F 29.7 °F 29.92 in NE 6.0 mph 13.0 mph 91% 0.02 in
05:00 32.0 °F 29.7 °F 29.92 in ENE 5.0 mph 9.0 mph 91% 0.02 in
05:04 32.0 °F 29.7 °F 29.92 in NE 4.0 mph 8.0 mph 91% 0.02 in
05:10 32.1 °F 29.8 °F 29.92 in East 3.0 mph 9.0 mph 91% 0.02 in
05:15 32.1 °F 29.8 °F 29.91 in ENE 3.0 mph 9.0 mph 91% 0.02 in
05:20 32.1 °F 29.8 °F 29.91 in ENE 4.0 mph 9.0 mph 91% 0.02 in
05:25 32.2 °F 29.9 °F 29.91 in ENE 4.0 mph 8.0 mph 91% 0.02 in
05:30 32.2 °F 29.9 °F 29.91 in NE 4.0 mph 8.0 mph 91% 0.03 in
05:35 32.2 °F 29.9 °F 29.90 in NE 4.0 mph 8.0 mph 91% 0.03 in
05:40 32.2 °F 30.1 °F 29.90 in ENE 2.0 mph 7.0 mph 92% 0.04 in
05:45 32.2 °F 30.1 °F 29.90 in NE 6.0 mph 10.0 mph 92% 0.04 in
05:50 32.2 °F 30.1 °F 29.90 in ENE 5.0 mph 9.0 mph 92% 0.04 in
05:59 32.2 °F 30.1 °F 29.90 in NE 3.0 mph 8.0 mph 92% 0.04 in
06:05 32.3 °F 30.2 °F 29.90 in NE 2.0 mph 6.0 mph 92% 0.04 in
06:10 32.2 °F 30.1 °F 29.90 in ENE 2.0 mph 7.0 mph 92% 0.05 in
06:15 32.3 °F 30.2 °F 29.90 in ENE 3.0 mph 6.0 mph 92% 0.04 in
06:20 32.3 °F 30.2 °F 29.89 in NE 2.0 mph 8.0 mph 92% 0.05 in
06:25 32.3 °F 30.2 °F 29.89 in NE 3.0 mph 8.0 mph 92% 0.05 in
06:35 32.3 °F 30.2 °F 29.89 in NE 4.0 mph 7.0 mph 92% 0.05 in
06:40 32.2 °F 30.1 °F 29.88 in NNE 2.0 mph 9.0 mph 92% 0.05 in
06:45 32.2 °F 30.1 °F 29.88 in NE 4.0 mph 9.0 mph 92% 0.05 in
06:50 32.1 °F 30.0 °F 29.88 in ENE 8.0 mph 8.0 mph 92% 0.05 in
07:00 32.0 °F 29.9 °F 29.88 in NE 4.0 mph 10.0 mph 92% 0.05 in
07:05 32.0 °F 29.9 °F 29.88 in NE 4.0 mph 9.0 mph 92% 0.05 in
07:09 32.0 °F 29.9 °F 29.88 in NE 6.0 mph 8.0 mph 92% 0.05 in
07:14 32.1 °F 30.0 °F 29.88 in NE 9.0 mph 10.0 mph 92% 0.05 in
07:20 32.0 °F 29.9 °F 29.88 in NE 2.0 mph 9.0 mph 92% 0.04 in
07:25 32.1 °F 30.0 °F 29.87 in NE 2.0 mph 7.0 mph 92% 0.05 in
07:30 32.0 °F 29.9 °F 29.88 in NE 7.0 mph 8.0 mph 92% 0.04 in
07:34 32.0 °F 29.9 °F 29.88 in NE 5.0 mph 8.0 mph 92% 0.04 in
07:40 32.0 °F 29.9 °F 29.88 in NE 4.0 mph 10.0 mph 92% 0.04 in
07:45 32.0 °F 29.9 °F 29.87 in NNE 2.0 mph 6.0 mph 92% 0.04 in
07:50 31.9 °F 29.8 °F 29.87 in NE 4.0 mph 7.0 mph 92% 0.05 in
07:55 31.9 °F 29.8 °F 29.87 in ENE 3.0 mph 7.0 mph 92% 0.05 in
08:00 31.9 °F 29.8 °F 29.87 in NE 3.0 mph 9.0 mph 92% 0.04 in
08:04 31.8 °F 29.7 °F 29.87 in NE 4.0 mph 9.0 mph 92% 0.05 in
08:10 31.9 °F 29.8 °F 29.86 in NE 4.0 mph 8.0 mph 92% 0.04 in
08:14 31.8 °F 29.7 °F 29.86 in East 3.0 mph 8.0 mph 92% 0.04 in
08:20 31.9 °F 29.8 °F 29.86 in NE 5.0 mph 7.0 mph 92% 0.05 in
08:25 32.0 °F 30.2 °F 29.86 in NE 3.0 mph 7.0 mph 93% 0.04 in
08:30 32.0 °F 30.2 °F 29.85 in ENE 2.0 mph 6.0 mph 93% 0.05 in
08:34 32.0 °F 30.2 °F 29.84 in ENE 3.0 mph 6.0 mph 93% 0.06 in
08:40 32.1 °F 30.3 °F 29.84 in ENE 3.0 mph 6.0 mph 93% 0.05 in
08:44 32.2 °F 30.4 °F 29.83 in East 2.0 mph 5.0 mph 93% 0.06 in
08:50 32.2 °F 30.4 °F 29.82 in ENE 2.0 mph 6.0 mph 93% 0.05 in
08:55 32.3 °F 30.5 °F 29.82 in ENE 2.0 mph 6.0 mph 93% 0.06 in
09:00 32.4 °F 30.6 °F 29.80 in SE 6.0 mph 7.0 mph 93% 0.06 in
09:04 32.5 °F 30.7 °F 29.80 in ESE 3.0 mph 8.0 mph 93% 0.05 in
09:09 32.5 °F 30.7 °F 29.79 in ESE 3.0 mph 10.0 mph 93% 0.06 in
09:15 32.6 °F 30.8 °F 29.79 in ESE 3.0 mph 10.0 mph 93% 0.05 in
09:20 32.7 °F 30.9 °F 29.78 in East 3.0 mph 9.0 mph 93% 0.06 in
09:24 32.8 °F 31.0 °F 29.78 in East 3.0 mph 6.0 mph 93% 0.06 in
09:30 32.9 °F 31.1 °F 29.77 in East 2.0 mph 7.0 mph 93% 0.06 in
09:34 33.0 °F 31.2 °F 29.78 in East 2.0 mph 7.0 mph 93% 0.05 in
09:40 33.0 °F 31.2 °F 29.78 in East 2.0 mph 5.0 mph 93% 0.05 in
09:45 33.1 °F 31.3 °F 29.77 in ENE 1.0 mph 3.0 mph 93% 0.05 in
09:50 33.1 °F 31.3 °F 29.77 in NNE 2.0 mph 3.0 mph 93% 0.05 in
09:55 33.2 °F 31.4 °F 29.77 in NNE 1.0 mph 3.0 mph 93% 0.04 in
10:00 33.2 °F 31.4 °F 29.77 in NNE 2.0 mph 3.0 mph 93% 0.05 in
10:05 33.3 °F 31.5 °F 29.77 in NNE 1.0 mph 3.0 mph 93% 0.04 in
10:10 33.2 °F 31.4 °F 29.76 in North 2.0 mph 3.0 mph 93% 0.05 in
10:15 33.2 °F 31.4 °F 29.75 in North 2.0 mph 4.0 mph 93% 0.05 in
10:20 33.2 °F 31.4 °F 29.75 in North 2.0 mph 4.0 mph 93% 0.04 in
10:25 33.3 °F 31.8 °F 29.73 in NNE 2.0 mph 8.0 mph 94% 0.04 in
10:30 33.4 °F 31.9 °F 29.73 in NE 2.0 mph 8.0 mph 94% 0.03 in
10:35 33.5 °F 32.0 °F 29.73 in NE 2.0 mph 4.0 mph 94% 0.04 in
10:39 33.9 °F 32.4 °F 29.73 in North 3.0 mph 4.0 mph 94% 0.04 in
10:44 34.2 °F 32.7 °F 29.72 in NNE 3.0 mph 4.0 mph 94% 0.03 in
10:50 34.4 °F 32.9 °F 29.72 in NNE 3.0 mph 4.0 mph 94% 0.03 in
10:54 34.5 °F 33.0 °F 29.72 in NNE 2.0 mph 4.0 mph 94% 0.03 in
11:00 34.5 °F 33.0 °F 29.72 in North 3.0 mph 3.0 mph 94% 0.02 in
11:05 34.6 °F 33.1 °F 29.71 in NNE 2.0 mph 4.0 mph 94% 0.02 in
11:10 34.6 °F 33.1 °F 29.71 in NNE 3.0 mph 3.0 mph 94% 0.01 in
11:15 34.6 °F 33.1 °F 29.72 in North 3.0 mph 6.0 mph 94% 0.01 in
11:19 34.3 °F 32.5 °F 29.73 in North 4.0 mph 8.0 mph 93% 0.01 in
11:25 34.1 °F 32.6 °F 29.73 in North 3.0 mph 8.0 mph 94% 0.01 in
11:30 34.0 °F 32.5 °F 29.73 in North 2.0 mph 7.0 mph 94% 0.01 in
11:35 33.8 °F 32.0 °F 29.73 in NNW 3.0 mph 7.0 mph 93% 0.01 in
11:40 33.7 °F 32.2 °F 29.73 in North 3.0 mph 7.0 mph 94% 0.01 in
11:45 33.7 °F 32.2 °F 29.73 in NNW 4.0 mph 5.0 mph 94% 0.01 in
11:49 33.9 °F 32.4 °F 29.74 in NNW 2.0 mph 5.0 mph 94% 0.02 in
11:55 33.8 °F 32.3 °F 29.74 in NW 2.0 mph 6.0 mph 94% 0.02 in
12:00 33.7 °F 32.2 °F 29.74 in NW 3.0 mph 6.0 mph 94% 0.03 in
12:04 33.5 °F 32.0 °F 29.73 in NNW 3.0 mph 6.0 mph 94% 0.03 in
12:09 33.6 °F 32.1 °F 29.73 in Calm   4.0 mph 94% 0.04 in
12:15 33.6 °F 32.1 °F 29.72 in North 2.0 mph 5.0 mph 94% 0.04 in
12:20 34.0 °F 32.5 °F 29.72 in North 2.0 mph 5.0 mph 94% 0.05 in
12:25 33.9 °F 32.4 °F 29.72 in NW 3.0 mph 6.0 mph 94% 0.05 in
12:29 33.8 °F 32.3 °F 29.72 in NNW 3.0 mph 6.0 mph 94% 0.05 in
12:35 33.8 °F 32.3 °F 29.72 in NNW 3.0 mph 7.0 mph 94% 0.05 in
12:40 33.8 °F 32.3 °F 29.72 in NW 3.0 mph 7.0 mph 94% 0.05 in
12:45 33.8 °F 32.3 °F 29.72 in WNW 5.0 mph 5.0 mph 94% 0.05 in
12:49 33.7 °F 32.2 °F 29.71 in NNW 3.0 mph 5.0 mph 94% 0.05 in
12:54 33.9 °F 32.4 °F 29.71 in NW 1.0 mph 3.0 mph 94% 0.05 in
12:59 33.9 °F 32.4 °F 29.72 in NW 2.0 mph 5.0 mph 94% 0.04 in
13:04 33.8 °F 32.3 °F 29.71 in Calm   4.0 mph 94% 0.04 in
13:09 33.7 °F 32.2 °F 29.71 in NW 1.0 mph 5.0 mph 94% 0.04 in
13:15 33.7 °F 32.2 °F 29.71 in NW 2.0 mph 5.0 mph 94% 0.04 in
13:20 33.5 °F 32.0 °F 29.72 in NW 2.0 mph 7.0 mph 94% 0.03 in
13:25 33.3 °F 31.8 °F 29.72 in NW 4.0 mph 7.0 mph 94% 0.03 in
13:29 33.0 °F 31.2 °F 29.72 in NW 4.0 mph 9.0 mph 93% 0.03 in
13:35 32.7 °F 31.2 °F 29.72 in NW 5.0 mph 9.0 mph 94% 0.02 in
13:40 32.6 °F 31.1 °F 29.71 in NW 5.0 mph 9.0 mph 94% 0.02 in
13:49 32.5 °F 30.7 °F 29.71 in West 1.0 mph 8.0 mph 93% 0.02 in
13:54 32.5 °F 30.7 °F 29.70 in NNW 2.0 mph 6.0 mph 93% 0.02 in
13:59 32.7 °F 31.2 °F 29.70 in NW 4.0 mph 7.0 mph 94% 0.02 in
14:05 32.7 °F 31.2 °F 29.70 in NW 3.0 mph 8.0 mph 94% 0.03 in
14:10 32.7 °F 30.9 °F 29.70 in NW 2.0 mph 8.0 mph 93% 0.02 in
14:14 32.6 °F 30.8 °F 29.70 in NNW 4.0 mph 8.0 mph 93% 0.02 in
14:20 32.4 °F 30.6 °F 29.71 in NW 5.0 mph 6.0 mph 93% 0.02 in
14:25 32.2 °F 30.4 °F 29.71 in NW 2.0 mph 9.0 mph 93% 0.02 in
14:30 31.9 °F 30.1 °F 29.72 in NW 4.0 mph 9.0 mph 93% 0.02 in
14:34 31.9 °F 30.1 °F 29.72 in Calm   3.0 mph 93% 0.02 in
14:39 31.8 °F 30.0 °F 29.72 in WNW 1.0 mph 5.0 mph 93% 0.02 in
14:44 31.7 °F 29.9 °F 29.71 in NW 2.0 mph 5.0 mph 93% 0.01 in
14:50 31.7 °F 29.9 °F 29.71 in NW 2.0 mph 5.0 mph 93% 0.01 in
14:54 31.6 °F 29.8 °F 29.72 in NW 2.0 mph 5.0 mph 93% 0.01 in
15:00 31.4 °F 29.6 °F 29.71 in North 1.0 mph 4.0 mph 93% 0.01 in
15:04 31.2 °F 29.4 °F 29.71 in WNW 1.0 mph 4.0 mph 93% 0.01 in
15:09 31.1 °F 29.3 °F 29.71 in NW 2.0 mph 5.0 mph 93% 0.01 in
15:14 31.0 °F 28.9 °F 29.71 in WNW 2.0 mph 5.0 mph 92% 0.01 in
15:19 30.9 °F 28.9 °F 29.71 in NW 2.0 mph 3.0 mph 92% 0.01 in
15:24 30.9 °F 28.9 °F 29.71 in WNW 1.0 mph 4.0 mph 92% 0.01 in
15:29 30.9 °F 28.9 °F 29.72 in NW 3.0 mph 4.0 mph 92% 0.01 in
15:34 30.9 °F 29.1 °F 29.72 in WNW 2.0 mph 4.0 mph 93% 0.01 in
15:39 31.0 °F 28.9 °F 29.73 in WNW 2.0 mph 6.0 mph 92% 0.01 in
15:44 30.9 °F 28.9 °F 29.73 in West 3.0 mph 6.0 mph 92% 0.01 in
15:50 30.8 °F 28.8 °F 29.73 in WNW 3.0 mph 5.0 mph 92% 0.01 in
15:54 30.8 °F 28.8 °F 29.73 in West 2.0 mph 5.0 mph 92% 0.01 in
15:59 30.9 °F 28.9 °F 29.72 in WSW 3.0 mph 6.0 mph 92% 0.01 in
16:04 30.9 °F 28.9 °F 29.72 in West 2.0 mph 7.0 mph 92% 0.00 in
16:09 31.0 °F 28.9 °F 29.72 in SW 6.0 mph 7.0 mph 92% 0.00 in
16:14 31.0 °F 28.9 °F 29.72 in WSW 3.0 mph 8.0 mph 92% 0.00 in
16:19 31.1 °F 29.0 °F 29.73 in WSW 4.0 mph 10.0 mph 92% 0.00 in
16:24 31.1 °F 29.0 °F 29.73 in WSW 3.0 mph 8.0 mph 92% 0.00 in
16:29 31.1 °F 29.0 °F 29.73 in WSW 4.0 mph 9.0 mph 92% 0.00 in
16:35 31.1 °F 29.0 °F 29.73 in WSW 3.0 mph 9.0 mph 92% 0.00 in
16:45 31.1 °F 29.0 °F 29.73 in WSW 5.0 mph 12.0 mph 92% 0.00 in
16:50 31.1 °F 29.0 °F 29.73 in WSW 5.0 mph 10.0 mph 92% 0.00 in
16:54 31.2 °F 29.1 °F 29.73 in WSW 5.0 mph 10.0 mph 92% 0.00 in
17:00 31.2 °F 29.1 °F 29.72 in WSW 4.0 mph 11.0 mph 92% 0.00 in
17:05 31.3 °F 29.2 °F 29.72 in SW 6.0 mph 10.0 mph 92% 0.00 in
17:09 31.4 °F 29.3 °F 29.72 in SW 6.0 mph 10.0 mph 92% 0.00 in
17:14 31.4 °F 29.3 °F 29.72 in SW 3.0 mph 9.0 mph 92% 0.00 in
17:19 31.4 °F 29.3 °F 29.72 in WSW 3.0 mph 7.0 mph 92% 0.00 in
17:24 31.4 °F 29.3 °F 29.72 in WSW 4.0 mph 9.0 mph 92% 0.00 in
17:29 31.4 °F 29.6 °F 29.72 in West 3.0 mph 6.0 mph 93% 0.00 in
17:34 31.5 °F 29.7 °F 29.72 in WSW 4.0 mph 8.0 mph 93% 0.00 in
17:39 31.5 °F 29.4 °F 29.73 in SW 4.0 mph 9.0 mph 92% 0.00 in
17:44 31.7 °F 29.9 °F 29.72 in WSW 5.0 mph 9.0 mph 93% 0.00 in
17:49 31.7 °F 29.9 °F 29.72 in WSW 4.0 mph 8.0 mph 93% 0.00 in
17:54 32.1 °F 30.3 °F 29.72 in SW 5.0 mph 11.0 mph 93% 0.00 in
17:59 32.3 °F 30.5 °F 29.72 in SSE 8.0 mph 17.0 mph 93% 0.00 in
18:04 32.6 °F 30.8 °F 29.73 in SW 5.0 mph 15.0 mph 93% 0.00 in
18:09 32.7 °F 30.9 °F 29.73 in SW 7.0 mph 16.0 mph 93% 0.00 in
18:14 32.8 °F 31.0 °F 29.73 in West 10.0 mph 14.0 mph 93% 0.00 in
18:19 32.8 °F 31.0 °F 29.73 in WSW 8.0 mph 17.0 mph 93% 0.00 in
18:24 32.8 °F 31.0 °F 29.73 in WSW 8.0 mph 17.0 mph 93% 0.00 in
18:29 32.8 °F 31.0 °F 29.73 in WSW 7.0 mph 16.0 mph 93% 0.00 in
18:34 32.8 °F 31.0 °F 29.73 in WSW 7.0 mph 15.0 mph 93% 0.00 in
18:39 32.8 °F 31.0 °F 29.73 in WSW 7.0 mph 17.0 mph 93% 0.00 in
18:44 33.0 °F 31.5 °F 29.73 in WNW 5.0 mph 13.0 mph 94% 0.00 in
18:54 33.1 °F 31.3 °F 29.72 in WSW 7.0 mph 14.0 mph 93% 0.00 in
18:59 33.1 °F 31.3 °F 29.72 in WSW 7.0 mph 14.0 mph 93% 0.00 in
19:04 33.1 °F 31.6 °F 29.72 in WSW 6.0 mph 13.0 mph 94% 0.00 in
19:09 33.3 °F 31.8 °F 29.72 in WSW 5.0 mph 9.0 mph 94% 0.00 in
19:14 33.4 °F 31.9 °F 29.71 in WSW 6.0 mph 11.0 mph 94% 0.00 in
19:19 33.5 °F 32.0 °F 29.71 in WSW 6.0 mph 11.0 mph 94% 0.00 in
19:24 33.5 °F 32.0 °F 29.71 in WSW 6.0 mph 11.0 mph 94% 0.00 in
19:29 33.7 °F 32.2 °F 29.71 in West 5.0 mph 9.0 mph 94% 0.00 in
19:34 33.7 °F 32.2 °F 29.71 in WSW 2.0 mph 8.0 mph 94% 0.00 in
19:39 33.7 °F 32.2 °F 29.70 in WSW 3.0 mph 10.0 mph 94% 0.00 in
19:44 33.8 °F 32.3 °F 29.71 in WSW 5.0 mph 8.0 mph 94% 0.00 in
19:49 33.8 °F 32.3 °F 29.71 in West 6.0 mph 10.0 mph 94% 0.00 in
19:54 33.9 °F 32.4 °F 29.71 in WSW 6.0 mph 10.0 mph 94% 0.00 in
19:59 34.0 °F 32.5 °F 29.71 in WSW 6.0 mph 12.0 mph 94% 0.00 in
20:04 34.1 °F 32.6 °F 29.71 in WSW 6.0 mph 12.0 mph 94% 0.00 in
20:09 34.2 °F 32.7 °F 29.71 in WSW 6.0 mph 14.0 mph 94% 0.00 in
20:15 34.3 °F 32.8 °F 29.71 in WSW 7.0 mph 16.0 mph 94% 0.00 in
20:19 34.4 °F 32.9 °F 29.72 in WSW 8.0 mph 19.0 mph 94% 0.01 in
20:24 34.4 °F 32.6 °F 29.72 in WSW 6.0 mph 18.0 mph 93% 0.01 in
20:29 34.5 °F 32.7 °F 29.72 in SW 3.0 mph 19.0 mph 93% 0.02 in
20:34 34.6 °F 32.8 °F 29.72 in SW 5.0 mph 15.0 mph 93% 0.02 in
20:39 34.6 °F 32.5 °F 29.73 in West 12.0 mph 26.0 mph 92% 0.02 in
20:44 34.6 °F 32.2 °F 29.73 in West 10.0 mph 18.0 mph 91% 0.03 in
20:49 34.4 °F 32.0 °F 29.73 in NW 8.0 mph 20.0 mph 91% 0.03 in
20:54 34.4 °F 31.8 °F 29.74 in NW 11.0 mph 20.0 mph 90% 0.03 in
20:59 34.3 °F 31.4 °F 29.75 in WNW 12.0 mph 23.0 mph 89% 0.03 in
21:04 34.3 °F 31.1 °F 29.75 in WNW 12.0 mph 23.0 mph 88% 0.03 in
21:09 34.3 °F 31.1 °F 29.75 in WNW 10.0 mph 20.0 mph 88% 0.03 in
21:14 34.3 °F 30.8 °F 29.76 in WNW 9.0 mph 19.0 mph 87% 0.04 in
21:19 34.3 °F 30.8 °F 29.76 in WNW 9.0 mph 18.0 mph 87% 0.03 in
21:24 34.1 °F 30.1 °F 29.76 in WNW 10.0 mph 21.0 mph 85% 0.03 in
21:29 34.1 °F 30.1 °F 29.77 in WNW 9.0 mph 21.0 mph 85% 0.02 in
21:34 34.0 °F 30.0 °F 29.77 in WNW 9.0 mph 21.0 mph 85% 0.02 in
21:39 33.8 °F 29.2 °F 29.78 in WNW 11.0 mph 24.0 mph 83% 0.02 in
21:44 33.6 °F 28.7 °F 29.79 in WNW 11.0 mph 24.0 mph 82% 0.01 in
21:49 33.5 °F 28.6 °F 29.79 in WNW 12.0 mph 21.0 mph 82% 0.01 in
21:54 33.4 °F 28.5 °F 29.79 in WNW 8.0 mph 27.0 mph 82% 0.01 in
21:59 33.2 °F 27.7 °F 29.80 in WNW 12.0 mph 29.0 mph 80% 0.01 in
22:04 33.1 °F 27.6 °F 29.80 in NW 10.0 mph 26.0 mph 80% 0.01 in
22:09 32.9 °F 27.4 °F 29.80 in WNW 12.0 mph 26.0 mph 80% 0.01 in
22:14 32.8 °F 27.0 °F 29.81 in WNW 13.0 mph 23.0 mph 79% 0.00 in
22:19 32.6 °F 26.8 °F 29.81 in WNW 13.0 mph 28.0 mph 79% 0.00 in
22:24 32.5 °F 26.4 °F 29.81 in WNW 14.0 mph 28.0 mph 78% 0.00 in
22:29 32.3 °F 26.5 °F 29.82 in West 8.0 mph 20.0 mph 79% 0.00 in
22:34 32.1 °F 26.3 °F 29.82 in North 9.0 mph 24.0 mph 79% 0.00 in
22:39 31.9 °F 26.1 °F 29.82 in WNW 11.0 mph 24.0 mph 79% 0.00 in
22:44 31.7 °F 25.9 °F 29.83 in WNW 12.0 mph 24.0 mph 79% 0.00 in
22:49 31.6 °F 25.8 °F 29.83 in WNW 13.0 mph 25.0 mph 79% 0.00 in
22:54 31.4 °F 25.3 °F 29.84 in WNW 13.0 mph 25.0 mph 78% 0.00 in
22:59 31.3 °F 25.2 °F 29.84 in WNW 10.0 mph 28.0 mph 78% 0.00 in
23:04 31.2 °F 25.1 °F 29.84 in West 9.0 mph 22.0 mph 78% 0.00 in
23:09 31.1 °F 25.0 °F 29.84 in NW 13.0 mph 24.0 mph 78% 0.00 in
23:14 31.0 °F 24.9 °F 29.85 in WNW 12.0 mph 24.0 mph 78% 0.00 in
23:19 30.8 °F 24.4 °F 29.85 in WNW 11.0 mph 23.0 mph 77% 0.00 in
23:24 30.8 °F 24.4 °F 29.85 in WNW 18.0 mph 23.0 mph 77% 0.00 in
23:29 30.6 °F 23.9 °F 29.86 in West 7.0 mph 18.0 mph 76% 0.00 in
23:34 30.5 °F 23.2 °F 29.86 in WNW 13.0 mph 25.0 mph 74% 0.00 in
23:39 30.5 °F 23.5 °F 29.86 in NW 7.0 mph 22.0 mph 75% 0.00 in
23:44 30.4 °F 23.4 °F 29.86 in West 10.0 mph 19.0 mph 75% 0.00 in
23:49 30.4 °F 23.4 °F 29.87 in West 10.0 mph 22.0 mph 75% 0.00 in
23:54 30.3 °F 23.0 °F 29.87 in West 10.0 mph 22.0 mph 74% 0.00 in
23:59 30.1 °F 23.1 °F 29.88 in West 10.0 mph 21.0 mph 75% 0.00 in
Buffalo, New York, USA
Compliments of Weather Underground - 2.5 mb